Time,TemperatureF,DewpointF,PressureIn,WindDirection,WindDirectionDegrees,WindSpeedMPH,WindSpeedGustMPH,Humidity,HourlyPrecipIn,Conditions,Clouds,dailyrainin,SoftwareType,DateUTC
2013-05-09 00:05:00,56.4,56.4,30.07,South,179,0.0,0.0,100,0.00,,,0.00,Wunderground v.1.15,2013-05-09 04:05:00,
2013-05-09 00:10:00,56.4,56.4,30.07,South,180,0.0,0.0,100,0.00,,,0.00,Wunderground v.1.15,2013-05-09 04:10:00,
2013-05-09 00:20:00,56.2,56.2,30.07,South,179,0.0,0.0,100,0.00,,,0.00,Wunderground v.1.15,2013-05-09 04:20:00,
2013-05-09 00:29:00,56.0,56.0,30.06,South,179,0.0,0.0,100,0.00,,,0.00,Wunderground v.1.15,2013-05-09 04:29:00,
2013-05-09 00:35:00,55.9,55.9,30.06,South,180,0.0,0.0,100,0.00,,,0.00,Wunderground v.1.15,2013-05-09 04:35:00,
2013-05-09 00:40:00,55.8,55.8,30.06,South,180,0.0,0.0,100,0.00,,,0.00,Wunderground v.1.15,2013-05-09 04:40:00,
2013-05-09 00:50:00,55.7,55.7,30.07,South,180,0.0,0.0,100,0.00,,,0.00,Wunderground v.1.15,2013-05-09 04:50:00,
2013-05-09 01:00:00,55.6,55.6,30.07,South,180,0.0,0.0,100,0.00,,,0.00,Wunderground v.1.15,2013-05-09 05:00:00,
2013-05-09 01:05:00,55.5,55.5,30.07,South,180,0.0,0.0,100,0.00,,,0.00,Wunderground v.1.15,2013-05-09 05:05:00,
2013-05-09 01:10:00,55.4,55.4,30.07,South,179,0.0,0.0,100,0.00,,,0.00,Wunderground v.1.15,2013-05-09 05:10:00,
2013-05-09 01:20:00,55.3,55.3,30.05,South,179,0.0,0.0,100,0.00,,,0.00,Wunderground v.1.15,2013-05-09 05:20:00,
2013-05-09 01:30:00,55.2,55.2,30.05,South,179,0.0,0.0,100,0.00,,,0.00,Wunderground v.1.15,2013-05-09 05:30:00,
2013-05-09 01:40:00,54.9,54.9,30.05,South,180,0.0,0.0,100,0.00,,,0.00,Wunderground v.1.15,2013-05-09 05:40:00,
2013-05-09 01:50:00,54.8,54.8,30.05,South,180,0.0,0.0,100,0.00,,,0.00,Wunderground v.1.15,2013-05-09 05:50:00,
2013-05-09 02:00:00,54.7,54.7,30.04,South,180,0.0,0.0,100,0.00,,,0.00,Wunderground v.1.15,2013-05-09 06:00:00,
2013-05-09 02:09:00,54.6,54.6,30.04,South,180,0.0,0.0,100,0.00,,,0.00,Wunderground v.1.15,2013-05-09 06:09:00,
2013-05-09 02:15:00,54.5,54.5,30.04,South,180,0.0,0.0,100,0.00,,,0.00,Wunderground v.1.15,2013-05-09 06:15:00,
2013-05-09 02:20:00,54.4,54.4,30.04,South,179,0.0,0.0,100,0.00,,,0.00,Wunderground v.1.15,2013-05-09 06:20:00,
2013-05-09 02:30:00,54.2,54.2,30.04,South,180,0.0,0.0,100,0.00,,,0.00,Wunderground v.1.15,2013-05-09 06:30:00,
2013-05-09 02:40:00,54.0,54.0,30.04,South,180,0.0,0.0,100,0.00,,,0.00,Wunderground v.1.15,2013-05-09 06:40:00,
2013-05-09 02:45:00,53.9,53.9,30.03,South,179,0.0,0.0,100,0.00,,,0.00,Wunderground v.1.15,2013-05-09 06:45:00,
2013-05-09 02:50:00,53.8,53.8,30.03,South,180,0.0,0.0,100,0.00,,,0.00,Wunderground v.1.15,2013-05-09 06:50:00,
2013-05-09 03:00:00,53.5,53.5,30.03,South,179,0.0,0.0,100,0.00,,,0.00,Wunderground v.1.15,2013-05-09 07:00:00,
2013-05-09 03:10:00,53.4,53.4,30.03,South,179,0.0,0.0,100,0.00,,,0.00,Wunderground v.1.15,2013-05-09 07:10:00,
2013-05-09 03:15:00,53.3,53.3,30.03,South,180,0.0,0.0,100,0.00,,,0.00,Wunderground v.1.15,2013-05-09 07:15:00,
2013-05-09 03:25:00,53.2,53.2,30.03,South,180,0.0,0.0,100,0.00,,,0.00,Wunderground v.1.15,2013-05-09 07:25:00,
2013-05-09 03:30:00,53.1,53.1,30.03,South,179,0.0,0.0,100,0.00,,,0.00,Wunderground v.1.15,2013-05-09 07:30:00,
2013-05-09 03:40:00,52.8,52.8,30.03,South,180,0.0,0.0,100,0.00,,,0.00,Wunderground v.1.15,2013-05-09 07:40:00,
2013-05-09 03:50:00,52.6,52.6,30.03,South,179,0.0,0.0,100,0.00,,,0.00,Wunderground v.1.15,2013-05-09 07:50:00,
2013-05-09 03:55:00,52.5,52.5,30.03,South,180,0.0,0.0,100,0.00,,,0.00,Wunderground v.1.15,2013-05-09 07:55:00,
2013-05-09 04:00:00,52.4,52.4,30.02,South,179,0.0,0.0,100,0.00,,,0.00,Wunderground v.1.15,2013-05-09 08:00:00,
2013-05-09 04:10:00,52.3,52.3,30.02,South,179,0.0,0.0,100,0.00,,,0.00,Wunderground v.1.15,2013-05-09 08:10:00,
2013-05-09 04:20:00,52.2,52.2,30.03,South,180,0.0,0.0,100,0.00,,,0.00,Wunderground v.1.15,2013-05-09 08:20:00,
2013-05-09 04:25:00,52.1,52.1,30.03,South,180,0.0,0.0,100,0.00,,,0.00,Wunderground v.1.15,2013-05-09 08:25:00,
2013-05-09 04:30:00,52.0,52.0,30.04,South,180,0.0,0.0,100,0.00,,,0.00,Wunderground v.1.15,2013-05-09 08:30:00,
2013-05-09 04:40:00,51.9,51.9,30.04,South,179,0.0,0.0,100,0.00,,,0.00,Wunderground v.1.15,2013-05-09 08:40:00,
2013-05-09 04:50:00,51.8,51.8,30.05,South,179,0.0,0.0,100,0.00,,,0.00,Wunderground v.1.15,2013-05-09 08:50:00,
2013-05-09 05:00:00,51.6,51.6,30.05,South,180,0.0,0.0,100,0.00,,,0.00,Wunderground v.1.15,2013-05-09 09:00:00,
2013-05-09 05:05:00,51.5,51.5,30.05,South,180,0.0,0.0,100,0.00,,,0.00,Wunderground v.1.15,2013-05-09 09:05:00,
2013-05-09 05:10:00,51.4,51.4,30.05,South,180,0.0,0.0,100,0.00,,,0.00,Wunderground v.1.15,2013-05-09 09:10:00,
2013-05-09 05:20:00,51.2,51.2,30.06,South,180,0.0,0.0,100,0.00,,,0.00,Wunderground v.1.15,2013-05-09 09:20:00,
2013-05-09 05:30:00,51.2,51.2,30.07,South,180,0.0,0.0,100,0.00,,,0.00,Wunderground v.1.15,2013-05-09 09:30:00,
2013-05-09 05:35:00,51.1,51.1,30.07,South,179,0.0,0.0,100,0.00,,,0.00,Wunderground v.1.15,2013-05-09 09:35:00,
2013-05-09 05:40:00,51.1,51.1,30.07,South,180,0.0,0.0,100,0.00,,,0.00,Wunderground v.1.15,2013-05-09 09:40:00,
2013-05-09 05:50:00,51.0,51.0,30.07,South,180,0.0,0.0,100,0.00,,,0.00,Wunderground v.1.15,2013-05-09 09:50:00,
2013-05-09 06:00:00,50.9,50.9,30.07,South,180,0.0,0.0,100,0.00,,,0.00,Wunderground v.1.15,2013-05-09 10:00:00,
2013-05-09 06:10:00,50.9,50.9,30.07,South,180,0.0,0.0,100,0.00,,,0.00,Wunderground v.1.15,2013-05-09 10:10:00,
2013-05-09 06:15:00,50.8,50.8,30.07,South,180,0.0,0.0,100,0.00,,,0.00,Wunderground v.1.15,2013-05-09 10:15:00,
2013-05-09 06:20:00,50.8,50.8,30.07,South,179,0.0,0.0,100,0.00,,,0.00,Wunderground v.1.15,2013-05-09 10:20:00,
2013-05-09 06:30:00,50.6,50.6,30.07,South,179,0.0,0.0,100,0.00,,,0.00,Wunderground v.1.15,2013-05-09 10:30:00,
2013-05-09 06:39:00,50.4,50.4,30.07,South,179,0.0,0.0,100,0.00,,,0.00,Wunderground v.1.15,2013-05-09 10:39:00,
2013-05-09 06:45:00,50.4,50.4,30.08,South,180,0.0,0.0,100,0.00,,,0.00,Wunderground v.1.15,2013-05-09 10:45:00,
2013-05-09 06:55:00,50.3,50.3,30.08,South,180,0.0,0.0,100,0.00,,,0.00,Wunderground v.1.15,2013-05-09 10:55:00,
2013-05-09 07:00:00,50.2,50.2,30.08,South,179,0.0,0.0,100,0.00,,,0.00,Wunderground v.1.15,2013-05-09 11:00:00,
2013-05-09 07:10:00,50.0,50.0,30.08,West,265,0.0,0.0,100,0.00,,,0.00,Wunderground v.1.15,2013-05-09 11:10:00,
2013-05-09 07:19:00,50.1,50.1,30.08,West,264,0.0,0.0,100,0.00,,,0.00,Wunderground v.1.15,2013-05-09 11:19:00,
2013-05-09 07:25:00,50.2,50.2,30.08,West,265,0.0,0.0,100,0.00,,,0.00,Wunderground v.1.15,2013-05-09 11:25:00,
2013-05-09 07:35:00,50.5,50.5,30.09,West,265,0.0,0.0,100,0.00,,,0.00,Wunderground v.1.15,2013-05-09 11:35:00,
2013-05-09 07:40:00,50.7,50.7,30.09,West,265,0.0,0.0,100,0.00,,,0.00,Wunderground v.1.15,2013-05-09 11:40:00,
2013-05-09 07:49:00,51.1,51.1,30.09,West,265,0.0,0.0,100,0.00,,,0.00,Wunderground v.1.15,2013-05-09 11:49:00,
2013-05-09 07:55:00,51.3,51.3,30.09,West,265,0.0,0.0,100,0.00,,,0.00,Wunderground v.1.15,2013-05-09 11:55:00,
2013-05-09 08:00:00,51.4,51.4,30.10,West,265,0.0,0.0,100,0.00,,,0.00,Wunderground v.1.15,2013-05-09 12:00:00,
2013-05-09 08:10:00,51.9,51.9,30.10,West,265,0.0,0.0,100,0.00,,,0.00,Wunderground v.1.15,2013-05-09 12:10:00,
2013-05-09 08:19:00,52.6,52.6,30.10,West,264,0.0,0.0,100,0.00,,,0.00,Wunderground v.1.15,2013-05-09 12:19:00,
2013-05-09 08:25:00,53.1,53.1,30.10,West,264,0.0,0.0,100,0.00,,,0.00,Wunderground v.1.15,2013-05-09 12:25:00,
2013-05-09 08:30:00,53.9,53.9,30.10,West,264,0.0,0.0,100,0.00,,,0.00,Wunderground v.1.15,2013-05-09 12:30:00,
2013-05-09 08:40:00,55.3,55.3,30.10,West,264,0.0,0.0,100,0.00,,,0.00,Wunderground v.1.15,2013-05-09 12:40:00,
2013-05-09 08:49:00,56.6,56.6,30.10,West,264,0.0,0.0,100,0.00,,,0.00,Wunderground v.1.15,2013-05-09 12:49:00,
2013-05-09 08:55:00,57.5,57.5,30.10,West,262,0.0,0.0,100,0.00,,,0.00,Wunderground v.1.15,2013-05-09 12:55:00,
2013-05-09 09:00:00,58.0,58.0,30.10,West,262,0.0,0.0,100,0.00,,,0.00,Wunderground v.1.15,2013-05-09 13:00:00,
2013-05-09 09:09:00,59.0,59.0,30.10,North,360,0.0,0.0,100,0.00,,,0.00,Wunderground v.1.15,2013-05-09 13:09:00,
2013-05-09 09:15:00,59.0,59.0,30.11,North,5,0.0,0.0,100,0.00,,,0.00,Wunderground v.1.15,2013-05-09 13:15:00,
2013-05-09 09:20:00,59.2,59.2,30.11,North,360,0.0,0.0,100,0.00,,,0.00,Wunderground v.1.15,2013-05-09 13:20:00,
2013-05-09 09:30:00,59.9,59.9,30.11,North,5,0.0,0.0,100,0.00,,,0.00,Wunderground v.1.15,2013-05-09 13:30:00,
2013-05-09 09:39:00,60.6,60.6,30.11,North,360,0.0,0.0,100,0.00,,,0.00,Wunderground v.1.15,2013-05-09 13:39:00,
2013-05-09 09:45:00,60.9,60.9,30.11,North,5,0.0,0.0,100,0.00,,,0.00,Wunderground v.1.15,2013-05-09 13:45:00,
2013-05-09 09:50:00,61.1,61.1,30.11,North,5,0.0,0.0,100,0.00,,,0.00,Wunderground v.1.15,2013-05-09 13:50:00,
2013-05-09 10:00:00,61.6,61.6,30.11,North,11,0.0,0.0,100,0.00,,,0.00,Wunderground v.1.15,2013-05-09 14:00:00,
2013-05-09 10:10:00,62.6,62.6,30.11,North,11,0.0,0.0,100,0.00,,,0.00,Wunderground v.1.15,2013-05-09 14:10:00,
2013-05-09 10:19:00,63.6,63.6,30.11,North,10,0.0,0.0,100,0.00,,,0.00,Wunderground v.1.15,2013-05-09 14:19:00,
2013-05-09 10:25:00,64.1,63.8,30.11,North,11,0.0,0.0,99,0.00,,,0.00,Wunderground v.1.15,2013-05-09 14:25:00,
2013-05-09 10:30:00,64.7,63.8,30.11,North,10,0.0,0.0,97,0.00,,,0.00,Wunderground v.1.15,2013-05-09 14:30:00,
2013-05-09 10:40:00,65.8,63.4,30.11,NW,309,0.0,0.0,92,0.00,,,0.00,Wunderground v.1.15,2013-05-09 14:40:00,
2013-05-09 10:49:00,66.9,64.2,30.11,NW,313,0.0,0.0,91,0.00,,,0.00,Wunderground v.1.15,2013-05-09 14:49:00,
2013-05-09 10:55:00,67.6,64.9,30.11,NW,313,0.0,0.0,91,0.00,,,0.00,Wunderground v.1.15,2013-05-09 14:55:00,
2013-05-09 11:00:00,68.1,64.4,30.11,North,360,0.0,0.0,88,0.00,,,0.00,Wunderground v.1.15,2013-05-09 15:00:00,
2013-05-09 11:10:00,69.6,64.5,30.11,NNW,347,0.0,0.0,84,0.00,,,0.00,Wunderground v.1.15,2013-05-09 15:10:00,
2013-05-09 11:20:00,70.3,65.2,30.11,NNW,347,0.0,0.0,84,0.00,,,0.00,Wunderground v.1.15,2013-05-09 15:20:00,
2013-05-09 11:30:00,71.2,65.1,30.11,NNE,17,0.0,0.0,81,0.00,,,0.00,Wunderground v.1.15,2013-05-09 15:30:00,
2013-05-09 11:40:00,71.9,65.0,30.11,NE,52,0.0,0.0,79,0.00,,,0.00,Wunderground v.1.15,2013-05-09 15:40:00,
2013-05-09 11:50:00,72.5,64.1,30.11,NE,55,0.0,0.0,75,0.00,,,0.00,Wunderground v.1.15,2013-05-09 15:50:00,
2013-05-09 11:59:00,73.3,64.9,30.11,SSE,152,0.0,1.0,75,0.00,,,0.00,Wunderground v.1.15,2013-05-09 15:59:00,
2013-05-09 12:05:00,73.8,65.8,30.11,SSE,152,0.0,1.0,76,0.00,,,0.00,Wunderground v.1.15,2013-05-09 16:05:00,
2013-05-09 12:10:00,74.1,66.4,30.11,SSE,152,0.0,0.0,77,0.00,,,0.00,Wunderground v.1.15,2013-05-09 16:10:00,
2013-05-09 12:20:00,74.4,65.2,30.11,SSE,153,0.0,0.0,73,0.00,,,0.00,Wunderground v.1.15,2013-05-09 16:20:00,
2013-05-09 12:29:00,75.1,65.9,30.11,SSE,153,0.0,0.0,73,0.00,,,0.00,Wunderground v.1.15,2013-05-09 16:29:00,
2013-05-09 12:35:00,75.3,64.4,30.11,SSE,147,0.0,0.0,69,0.00,,,0.00,Wunderground v.1.15,2013-05-09 16:35:00,
2013-05-09 12:40:00,75.5,64.2,30.11,North,11,0.0,0.0,68,0.00,,,0.00,Wunderground v.1.15,2013-05-09 16:40:00,
2013-05-09 12:50:00,75.1,64.6,30.11,NNE,16,0.0,0.0,70,0.00,,,0.00,Wunderground v.1.15,2013-05-09 16:50:00,
2013-05-09 13:00:00,75.9,64.2,30.10,NNE,19,0.0,0.0,67,0.00,,,0.00,Wunderground v.1.15,2013-05-09 17:00:00,
2013-05-09 13:10:00,76.1,63.5,30.10,ESE,121,0.0,0.0,65,0.00,,,0.00,Wunderground v.1.15,2013-05-09 17:10:00,
2013-05-09 13:15:00,76.8,62.8,30.10,SE,136,0.0,0.0,62,0.00,,,0.00,Wunderground v.1.15,2013-05-09 17:15:00,
2013-05-09 13:25:00,77.5,64.4,30.10,South,173,0.0,0.0,64,0.00,,,0.00,Wunderground v.1.15,2013-05-09 17:25:00,
2013-05-09 13:30:00,77.7,64.1,30.10,NNE,17,0.0,0.0,63,0.00,,,0.00,Wunderground v.1.15,2013-05-09 17:30:00,
2013-05-09 13:40:00,79.3,64.7,30.10,South,173,0.0,0.0,61,0.00,,,0.00,Wunderground v.1.15,2013-05-09 17:40:00,
2013-05-09 13:49:00,80.5,65.3,30.10,SSE,157,0.0,0.0,60,0.00,,,0.00,Wunderground v.1.15,2013-05-09 17:49:00,
2013-05-09 13:55:00,80.6,64.5,30.10,South,180,0.0,0.0,58,0.00,,,0.00,Wunderground v.1.15,2013-05-09 17:55:00,
2013-05-09 14:00:00,80.6,64.0,30.10,ESE,111,0.0,0.0,57,0.00,,,0.00,Wunderground v.1.15,2013-05-09 18:00:00,
2013-05-09 14:10:00,80.0,62.9,30.10,SE,134,0.0,0.0,56,0.00,,,0.00,Wunderground v.1.15,2013-05-09 18:10:00,
2013-05-09 14:15:00,79.8,63.2,30.09,SSE,155,0.0,0.0,57,0.00,,,0.00,Wunderground v.1.15,2013-05-09 18:15:00,
2013-05-09 14:25:00,80.0,63.9,30.09,South,173,0.0,0.0,58,0.00,,,0.00,Wunderground v.1.15,2013-05-09 18:25:00,
2013-05-09 14:30:00,80.0,65.3,30.09,South,174,0.0,0.0,61,0.00,,,0.00,Wunderground v.1.15,2013-05-09 18:30:00,
2013-05-09 14:40:00,81.0,62.3,30.09,East,89,0.0,0.0,53,0.00,,,0.00,Wunderground v.1.15,2013-05-09 18:40:00,
2013-05-09 14:50:00,82.1,62.7,30.09,SSE,159,0.0,1.0,52,0.00,,,0.00,Wunderground v.1.15,2013-05-09 18:50:00,
2013-05-09 15:00:00,82.1,64.8,30.07,SSE,159,0.0,0.0,56,0.00,,,0.00,Wunderground v.1.15,2013-05-09 19:00:00,
2013-05-09 15:10:00,82.9,65.6,30.07,SE,146,0.0,2.0,56,0.00,,,0.00,Wunderground v.1.15,2013-05-09 19:10:00,
2013-05-09 15:20:00,82.5,63.6,30.07,SSE,159,1.0,1.0,53,0.00,,,0.00,Wunderground v.1.15,2013-05-09 19:20:00,
2013-05-09 15:30:00,82.5,63.1,30.06,NNE,24,1.0,1.0,52,0.00,,,0.00,Wunderground v.1.15,2013-05-09 19:30:00,
2013-05-09 15:40:00,82.3,63.5,30.06,SSE,161,1.0,1.0,53,0.00,,,0.00,Wunderground v.1.15,2013-05-09 19:40:00,
2013-05-09 15:50:00,81.7,65.5,30.06,SSE,161,0.0,0.0,58,0.00,,,0.00,Wunderground v.1.15,2013-05-09 19:50:00,
2013-05-09 15:59:00,80.3,64.2,30.07,SSE,160,0.0,0.0,58,0.00,,,0.00,Wunderground v.1.15,2013-05-09 19:59:00,
2013-05-09 16:05:00,79.4,62.8,30.07,SSE,165,0.0,0.0,57,0.00,,,0.00,Wunderground v.1.15,2013-05-09 20:05:00,
2013-05-09 16:10:00,78.7,64.1,30.07,SSE,165,0.0,2.0,61,0.00,,,0.00,Wunderground v.1.15,2013-05-09 20:10:00,
2013-05-09 16:20:00,77.8,63.3,30.07,SSE,162,0.0,0.0,61,0.00,,,0.00,Wunderground v.1.15,2013-05-09 20:20:00,
2013-05-09 16:29:00,78.3,63.7,30.06,SE,142,0.0,0.0,61,0.00,,,0.00,Wunderground v.1.15,2013-05-09 20:29:00,
2013-05-09 16:35:00,78.6,64.5,30.06,SSE,148,0.0,1.0,62,0.00,,,0.00,Wunderground v.1.15,2013-05-09 20:35:00,
2013-05-09 16:40:00,78.7,65.5,30.06,SSE,148,0.0,0.0,64,0.00,,,0.00,Wunderground v.1.15,2013-05-09 20:40:00,
2013-05-09 16:50:00,78.6,62.6,30.06,South,178,0.0,0.0,58,0.00,,,0.00,Wunderground v.1.15,2013-05-09 20:50:00,
2013-05-09 16:59:00,77.7,64.1,30.06,South,178,0.0,0.0,63,0.00,,,0.00,Wunderground v.1.15,2013-05-09 20:59:00,
2013-05-09 17:05:00,77.5,63.9,30.06,South,180,0.0,0.0,63,0.00,,,0.00,Wunderground v.1.15,2013-05-09 21:05:00,
2013-05-09 17:10:00,77.5,63.5,30.06,South,180,0.0,0.0,62,0.00,,,0.00,Wunderground v.1.15,2013-05-09 21:10:00,
2013-05-09 17:20:00,77.7,64.1,30.06,NNE,32,0.0,0.0,63,0.00,,,0.00,Wunderground v.1.15,2013-05-09 21:20:00,
2013-05-09 17:30:00,78.0,63.9,30.06,SSE,150,0.0,0.0,62,0.00,,,0.00,Wunderground v.1.15,2013-05-09 21:30:00,
2013-05-09 17:35:00,78.2,62.7,30.06,North,360,0.0,0.0,59,0.00,,,0.00,Wunderground v.1.15,2013-05-09 21:35:00,
2013-05-09 17:40:00,78.2,63.2,30.06,South,172,0.0,0.0,60,0.00,,,0.00,Wunderground v.1.15,2013-05-09 21:40:00,
2013-05-09 17:50:00,77.8,62.8,30.05,NNE,19,0.0,0.0,60,0.00,,,0.00,Wunderground v.1.15,2013-05-09 21:50:00,
2013-05-09 18:00:00,77.1,63.5,30.05,NNE,19,0.0,0.0,63,0.00,,,0.00,Wunderground v.1.15,2013-05-09 22:00:00,
2013-05-09 18:10:00,77.2,61.8,30.05,NNE,19,0.0,0.0,59,0.00,,,0.00,Wunderground v.1.15,2013-05-09 22:10:00,
2013-05-09 18:20:00,77.4,61.5,30.05,NNE,19,0.0,0.0,58,0.00,,,0.00,Wunderground v.1.15,2013-05-09 22:20:00,
2013-05-09 18:30:00,77.3,63.3,30.05,ENE,64,0.0,0.0,62,0.00,,,0.00,Wunderground v.1.15,2013-05-09 22:30:00,
2013-05-09 18:39:00,77.1,60.7,30.05,East,82,0.0,0.0,57,0.00,,,0.00,Wunderground v.1.15,2013-05-09 22:39:00,
2013-05-09 18:45:00,77.1,62.1,30.05,East,82,0.0,0.0,60,0.00,,,0.00,Wunderground v.1.15,2013-05-09 22:45:00,
2013-05-09 18:50:00,77.0,63.0,30.05,East,82,0.0,0.0,62,0.00,,,0.00,Wunderground v.1.15,2013-05-09 22:50:00,
2013-05-09 19:00:00,76.7,63.2,30.05,East,85,0.0,0.0,63,0.00,,,0.00,Wunderground v.1.15,2013-05-09 23:00:00,
2013-05-09 19:10:00,76.2,63.6,30.05,East,85,0.0,0.0,65,0.00,,,0.00,Wunderground v.1.15,2013-05-09 23:10:00,
2013-05-09 19:19:00,75.9,61.9,30.04,East,85,0.0,0.0,62,0.00,,,0.00,Wunderground v.1.15,2013-05-09 23:19:00,
2013-05-09 19:25:00,75.8,62.8,30.04,East,84,0.0,0.0,64,0.00,,,0.00,Wunderground v.1.15,2013-05-09 23:25:00,
2013-05-09 19:30:00,75.6,64.3,30.04,East,84,0.0,0.0,68,0.00,,,0.00,Wunderground v.1.15,2013-05-09 23:30:00,
2013-05-09 19:40:00,75.0,63.7,30.04,East,85,0.0,0.0,68,0.00,,,0.00,Wunderground v.1.15,2013-05-09 23:40:00,
2013-05-09 19:49:00,74.4,63.6,30.05,East,85,0.0,0.0,69,0.00,,,0.00,Wunderground v.1.15,2013-05-09 23:49:00,
2013-05-09 19:55:00,74.2,63.8,30.05,East,84,0.0,0.0,70,0.00,,,0.00,Wunderground v.1.15,2013-05-09 23:55:00,
2013-05-09 20:00:00,73.9,64.3,30.05,East,84,0.0,0.0,72,0.00,,,0.00,Wunderground v.1.15,2013-05-10 00:00:00,
2013-05-09 20:10:00,73.0,66.1,30.05,East,84,0.0,0.0,79,0.00,,,0.00,Wunderground v.1.15,2013-05-10 00:10:00,
2013-05-09 20:20:00,72.2,65.0,30.05,East,84,0.0,0.0,78,0.00,,,0.00,Wunderground v.1.15,2013-05-10 00:20:00,
2013-05-09 20:25:00,71.8,65.7,30.05,East,85,0.0,0.0,81,0.00,,,0.00,Wunderground v.1.15,2013-05-10 00:25:00,
2013-05-09 20:30:00,71.3,65.2,30.06,East,84,0.0,0.0,81,0.00,,,0.00,Wunderground v.1.15,2013-05-10 00:30:00,
2013-05-09 20:40:00,70.3,64.9,30.06,East,84,0.0,0.0,83,0.00,,,0.00,Wunderground v.1.15,2013-05-10 00:40:00,
2013-05-09 20:49:00,69.5,64.8,30.06,East,85,0.0,0.0,85,0.00,,,0.00,Wunderground v.1.15,2013-05-10 00:49:00,
2013-05-09 20:55:00,68.9,64.2,30.06,East,85,0.0,0.0,85,0.00,,,0.00,Wunderground v.1.15,2013-05-10 00:55:00,
2013-05-09 21:00:00,68.5,63.8,30.07,East,85,0.0,0.0,85,0.00,,,0.00,Wunderground v.1.15,2013-05-10 01:00:00,
2013-05-09 21:10:00,67.5,63.8,30.07,East,86,0.0,0.0,88,0.00,,,0.00,Wunderground v.1.15,2013-05-10 01:10:00,
2013-05-09 21:20:00,66.4,62.4,30.06,East,86,0.0,0.0,87,0.00,,,0.00,Wunderground v.1.15,2013-05-10 01:20:00,
2013-05-09 21:25:00,66.0,62.3,30.06,East,86,0.0,0.0,88,0.00,,,0.00,Wunderground v.1.15,2013-05-10 01:25:00,
2013-05-09 21:30:00,65.4,61.8,30.07,East,86,0.0,0.0,88,0.00,,,0.00,Wunderground v.1.15,2013-05-10 01:30:00,
2013-05-09 21:40:00,64.5,61.5,30.07,East,86,0.0,0.0,90,0.00,,,0.00,Wunderground v.1.15,2013-05-10 01:40:00,
2013-05-09 21:50:00,64.0,61.6,30.08,East,86,0.0,0.0,92,0.00,,,0.00,Wunderground v.1.15,2013-05-10 01:50:00,
2013-05-09 21:59:00,63.4,61.6,30.08,East,86,0.0,0.0,94,0.00,,,0.00,Wunderground v.1.15,2013-05-10 01:59:00,
2013-05-09 22:05:00,63.2,61.4,30.08,East,86,0.0,0.0,94,0.00,,,0.00,Wunderground v.1.15,2013-05-10 02:05:00,
2013-05-09 22:10:00,62.9,61.4,30.08,East,86,0.0,0.0,95,0.00,,,0.00,Wunderground v.1.15,2013-05-10 02:10:00,
2013-05-09 22:20:00,62.3,60.8,30.08,East,86,0.0,0.0,95,0.00,,,0.00,Wunderground v.1.15,2013-05-10 02:20:00,
2013-05-09 22:30:00,61.8,60.6,30.08,East,86,0.0,0.0,96,0.00,,,0.00,Wunderground v.1.15,2013-05-10 02:30:00,
2013-05-09 22:35:00,61.6,60.4,30.08,East,86,0.0,0.0,96,0.00,,,0.00,Wunderground v.1.15,2013-05-10 02:35:00,
2013-05-09 22:45:00,61.2,60.3,30.09,East,86,0.0,0.0,97,0.00,,,0.00,Wunderground v.1.15,2013-05-10 02:45:00,
2013-05-09 22:50:00,61.0,60.1,30.09,East,86,0.0,0.0,97,0.00,,,0.00,Wunderground v.1.15,2013-05-10 02:50:00,
2013-05-09 23:00:00,60.8,59.9,30.09,East,86,0.0,0.0,97,0.00,,,0.00,Wunderground v.1.15,2013-05-10 03:00:00,
2013-05-09 23:09:00,60.5,59.9,30.09,East,86,0.0,0.0,98,0.00,,,0.00,Wunderground v.1.15,2013-05-10 03:09:00,
2013-05-09 23:15:00,60.4,59.8,30.09,East,86,0.0,0.0,98,0.00,,,0.00,Wunderground v.1.15,2013-05-10 03:15:00,
2013-05-09 23:24:00,60.1,59.5,30.09,East,86,0.0,0.0,98,0.00,,,0.00,Wunderground v.1.15,2013-05-10 03:24:00,
2013-05-09 23:30:00,60.0,59.4,30.09,East,86,0.0,0.0,98,0.00,,,0.00,Wunderground v.1.15,2013-05-10 03:30:00,
2013-05-09 23:39:00,59.6,59.3,30.09,East,86,0.0,0.0,99,0.00,,,0.00,Wunderground v.1.15,2013-05-10 03:39:00,
2013-05-09 23:45:00,59.4,59.4,30.09,East,86,0.0,0.0,100,0.00,,,0.00,Wunderground v.1.15,2013-05-10 03:45:00,
2013-05-09 23:50:00,59.2,59.2,30.09,East,86,0.0,0.0,100,0.00,,,0.00,Wunderground v.1.15,2013-05-10 03:50:00,